Location: Home
(42.5358°N, 72.7383°W)
Time: 23:17:59
(UTC-04:00)

Tiros 1 - Visible Passes

Search period start: 17 July 2025 00:00
Search period end: 27 July 2025 00:00
Orbit: 619 x 651 km, 48.4° (Epoch: 17 July)

Date Brightness Start Highest point End Pass type
(mag) Time Alt. Az. Time Alt. Az. Time Alt. Az.
17 Jul 7.3 00:54:31 10° WNW 00:58:53 70° NNW 00:58:53 70° NNW visible
17 Jul 8.4 21:52:15 10° W 21:56:47 42° N 22:01:18 10° ENE visible
17 Jul 8.0 23:34:45 10° WNW 23:39:22 48° NNE 23:41:47 25° ENE visible
18 Jul 8.5 01:16:46 10° WNW 01:19:08 29° WNW 01:19:08 29° WNW visible
18 Jul 8.4 22:14:47 10° WNW 22:19:17 40° N 22:23:46 10° ENE visible
18 Jul 7.3 23:56:59 10° WNW 00:01:44 68° NNE 00:02:12 63° ENE visible
19 Jul 9.6 01:39:14 10° WNW 01:39:34 12° WNW 01:39:34 12° WNW visible
19 Jul 8.3 20:54:38 10° W 20:59:10 44° N 21:03:44 10° ENE visible
19 Jul 8.1 22:37:11 10° WNW 22:41:46 45° N 22:45:22 16° E visible
20 Jul 7.8 00:19:14 10° WNW 00:22:44 48° WNW 00:22:44 48° WNW visible
20 Jul 8.4 21:17:11 10° WNW 21:21:40 40° N 21:26:09 10° ENE visible
20 Jul 7.5 22:59:27 10° WNW 23:04:11 61° NNE 23:05:59 35° E visible
21 Jul 9.0 00:41:36 10° WNW 00:43:22 21° W 00:43:22 21° W visible
21 Jul 8.2 21:39:38 10° WNW 21:44:10 43° N 21:48:42 10° E visible
21 Jul 7.0 23:21:41 10° WNW 23:26:27 87° SSW 23:26:40 81° SE visible
22 Jul 7.7 22:01:55 10° WNW 22:06:36 55° NNE 22:10:02 18° E visible
22 Jul 8.0 23:43:59 10° WNW 23:47:25 40° WSW 23:47:25 40° WSW visible
23 Jul 7.1 22:24:09 10° WNW 22:28:55 82° NNE 22:30:49 36° ESE visible
24 Jul 9.2 00:06:37 10° W 00:08:13 18° W 00:08:13 18° W visible
24 Jul 7.9 21:04:23 10° WNW 21:09:01 51° NNE 21:13:38 10° E visible
24 Jul 7.2 22:46:24 10° WNW 22:51:05 58° SSW 22:51:40 54° S visible
25 Jul 7.3 21:26:36 10° WNW 21:31:21 73° NNE 21:35:09 16° ESE visible
25 Jul 8.3 23:08:54 10° WNW 23:12:33 30° SW 23:12:33 30° SW visible
26 Jul 7.2 21:48:50 10° WNW 21:53:34 69° SSW 21:56:06 27° SE visible
26 Jul 9.4 23:32:08 10° W 23:33:29 14° WSW 23:33:29 14° WSW visible
